�N����,����,�~����,�C��,���x,�C��,����,���ϕ���,�ő�u�ԕ���,�ő厞����,���˗�,�I�_���x,�n�����x,�ő啗���N��,DTYPE
"16/10/10","00:10",0.0,16.2,85.2,1011.2,315.4,1.5,2.4,329.2,0.00,13.8,21.0,"00:01:44",1
"16/10/10","00:20",0.0,16.3,85.1,1010.9,315.7,1.2,2.1,348.0,0.00,13.8,21.2,"00:16:56",1
"16/10/10","00:30",0.0,16.2,85.4,1011.4,329.4,1.5,2.4,344.0,0.00,13.8,21.1,"00:25:12",1
"16/10/10","00:40",0.0,16.1,85.8,1011.2,327.0,1.3,2.2,333.9,0.00,13.8,21.0,"00:34:48",1
"16/10/10","00:50",0.0,16.0,85.4,1010.7,330.6,1.2,2.2,339.9,0.00,13.6,21.1,"00:42:32",1
"16/10/10","01:00",0.0,15.7,86.2,1010.9,309.1,0.8,1.3,333.8,0.00,13.4,20.8,"00:50:48",1
"16/10/10","01:10",0.0,15.3,87.7,1011.4,309.9,1.0,1.6,332.6,0.00,13.3,20.7,"01:01:52",1
"16/10/10","01:20",0.0,15.0,88.5,1010.7,304.7,0.8,1.7,326.0,0.00,13.2,20.9,"01:18:42",1
"16/10/10","01:30",0.0,14.9,89.4,1010.4,311.8,1.0,1.4,321.0,0.00,13.2,20.7,"01:27:04",1
"16/10/10","01:40",0.0,14.9,89.8,1010.4,317.5,1.2,2.4,332.3,0.00,13.3,20.7,"01:37:28",1
"16/10/10","01:50",0.0,15.1,89.7,1010.0,320.3,1.2,2.0,323.3,0.00,13.5,20.7,"01:43:04",1
"16/10/10","02:00",0.0,14.9,89.5,1010.7,295.8,1.0,1.3,308.1,0.00,13.2,20.6,"01:56:48",1
"16/10/10","02:10",0.0,14.8,89.1,1010.9,307.5,1.1,1.7,315.9,0.00,13.1,20.5,"02:01:44",1
"16/10/10","02:20",0.0,14.8,88.8,1010.4,316.6,1.1,1.8,322.9,0.00,13.0,20.6,"02:11:44",1
"16/10/10","02:30",0.0,14.6,88.3,1010.4,314.6,1.2,1.9,338.9,0.00,12.7,20.4,"02:26:56",1
"16/10/10","02:40",0.0,14.2,88.6,1010.4,313.8,1.2,1.8,328.2,0.00,12.4,20.5,"02:33:04",1
"16/10/10","02:50",0.0,14.0,89.2,1010.4,322.6,1.3,2.6,334.5,0.00,12.3,20.4,"02:40:40",1
"16/10/10","03:00",0.0,14.0,90.0,1010.7,298.9,1.1,1.8,329.0,0.00,12.4,20.4,"02:50:08",1
"16/10/10","03:10",0.0,14.1,90.7,1010.7,295.8,1.1,1.6,309.4,0.00,12.6,20.2,"03:00:56",1
"16/10/10","03:20",0.0,14.3,90.1,1010.7,319.9,1.3,2.5,329.9,0.00,12.7,20.1,"03:17:52",1
"16/10/10","03:30",0.0,14.5,89.3,1010.7,321.9,1.5,2.4,333.3,0.00,12.8,20.3,"03:21:12",1
"16/10/10","03:40",0.0,14.6,88.7,1010.4,300.9,1.1,1.7,323.5,0.00,12.8,20.2,"03:30:16",1
"16/10/10","03:50",0.0,14.7,88.3,1010.7,321.6,1.3,2.7,333.8,0.00,12.8,20.3,"03:45:20",1
"16/10/10","04:00",0.0,14.8,87.6,1010.9,311.5,1.3,3.1,332.1,0.00,12.8,20.1,"03:58:48",1
"16/10/10","04:10",0.0,14.9,86.9,1010.7,312.7,1.5,2.4,331.0,0.00,12.8,20.2,"04:00:32",1
"16/10/10","04:20",0.0,15.0,86.2,1010.7,301.7,1.1,1.7,327.9,0.00,12.8,20.2,"04:13:12",1
"16/10/10","04:30",0.0,15.0,85.1,1010.9,306.4,1.2,1.8,319.9,0.00,12.6,20.2,"04:25:52",1
"16/10/10","04:40",0.0,15.1,84.2,1011.4,299.0,1.1,1.7,333.8,0.00,12.5,20.3,"04:38:40",1
"16/10/10","04:50",0.0,15.1,83.3,1011.4,309.6,1.2,2.1,317.0,0.00,12.3,20.3,"04:48:32",1
"16/10/10","05:00",0.0,15.1,83.1,1010.9,302.6,1.1,1.8,328.2,0.00,12.3,20.0,"04:50:32",1
"16/10/10","05:10",0.0,14.9,83.4,1011.2,304.9,1.1,2.0,314.9,0.00,12.2,20.1,"05:06:08",1
"16/10/10","05:20",0.0,14.6,84.5,1011.2,300.9,1.0,1.6,323.0,0.00,12.1,20.2,"05:12:40",1
"16/10/10","05:30",0.0,14.3,85.6,1011.2,312.5,1.0,1.6,279.8,0.00,12.0,20.1,"05:20:08",1
"16/10/10","05:40",0.0,14.0,87.1,1010.9,320.3,1.2,1.9,334.9,0.00,11.9,20.0,"05:33:12",1
"16/10/10","05:50",0.0,13.5,88.9,1011.4,305.5,1.1,1.7,321.5,0.00,11.7,19.9,"05:49:20",1
"16/10/10","06:00",0.0,13.3,90.1,1011.2,294.0,1.0,1.7,335.2,0.00,11.8,19.7,"05:55:52",1
"16/10/10","06:10",0.0,13.4,90.9,1011.4,309.9,0.8,1.7,308.4,0.00,12.0,19.7,"06:07:12",1
"16/10/10","06:20",0.0,13.6,91.3,1011.2,314.9,0.8,1.6,322.0,0.00,12.2,19.8,"06:19:20",1
"16/10/10","06:30",0.0,13.7,91.1,1011.4,311.4,1.0,1.9,332.5,0.00,12.3,19.7,"06:23:36",1
"16/10/10","06:40",0.0,14.1,90.6,1011.2,322.3,1.1,2.0,316.9,0.00,12.6,19.7,"06:35:36",1
"16/10/10","06:50",0.0,14.6,89.3,1011.6,313.9,1.2,2.0,313.3,0.01,12.9,19.8,"06:45:52",1
"16/10/10","07:00",0.0,14.9,88.7,1011.6,305.9,1.0,1.8,329.2,0.02,13.1,19.9,"06:54:08",1
"16/10/10","07:10",0.0,15.1,87.8,1012.1,317.6,1.3,2.0,327.3,0.03,13.1,19.8,"07:00:56",1
"16/10/10","07:20",0.0,15.3,85.6,1011.9,305.9,1.0,1.3,323.0,0.03,12.9,19.8,"07:15:04",1
"16/10/10","07:30",0.0,15.5,84.4,1011.9,303.2,1.0,1.6,317.1,0.04,12.9,19.8,"07:21:12",1
"16/10/10","07:40",0.0,15.5,83.4,1012.3,302.8,1.0,1.3,314.0,0.03,12.7,19.8,"07:32:48",1
"16/10/10","07:50",0.0,15.5,83.5,1012.3,309.1,1.1,1.6,323.2,0.02,12.8,19.9,"07:40:24",1
"16/10/10","08:00",0.0,16.8,79.6,1011.9,317.0,1.0,1.9,323.6,0.12,13.3,20.0,"07:55:52",1
"16/10/10","08:10",0.0,18.4,70.3,1012.6,316.8,0.8,2.1,356.7,0.20,12.9,20.0,"08:08:56",1
"16/10/10","08:20",0.0,18.5,66.0,1012.6,286.8,0.6,1.7,231.8,0.19,12.1,20.1,"08:19:52",1
"16/10/10","08:30",0.0,18.2,71.4,1012.8,285.8,0.7,3.1,230.7,0.15,13.0,20.1,"08:20:32",1
"16/10/10","08:40",0.0,17.9,71.9,1012.3,310.7,1.0,2.5,233.4,0.11,12.8,20.4,"08:38:56",1
"16/10/10","08:50",0.0,18.7,66.5,1012.6,332.4,0.6,1.6,0.9,0.21,12.4,20.3,"08:45:52",1
"16/10/10","09:00",0.0,19.4,61.4,1012.1,18.8,1.2,3.3,205.5,0.32,11.8,20.5,"08:53:44",1
"16/10/10","09:10",0.0,19.4,61.9,1012.3,7.0,1.7,3.3,58.8,0.29,12.0,20.4,"09:08:16",1
"16/10/10","09:20",0.0,19.6,60.3,1012.1,358.1,1.8,4.4,341.0,0.29,11.7,20.7,"09:12:40",1
"16/10/10","09:30",0.0,19.4,60.3,1011.6,346.8,2.6,5.9,339.5,0.26,11.6,20.9,"09:24:48",1
"16/10/10","09:40",0.0,20.1,59.8,1011.6,351.2,2.0,4.7,357.9,0.39,12.1,20.9,"09:38:16",1
"16/10/10","09:50",0.0,19.9,58.1,1011.4,353.9,2.0,4.9,337.6,0.40,11.5,21.0,"09:48:16",1
"16/10/10","10:00",0.0,20.1,58.0,1011.4,16.1,2.5,4.4,12.1,0.43,11.6,21.1,"09:50:02",1
"16/10/10","10:10",0.0,20.3,57.1,1011.6,21.0,2.6,5.0,83.4,0.47,11.6,21.3,"10:02:00",1
"16/10/10","10:20",0.0,20.5,56.1,1011.2,2.3,2.5,5.6,353.3,0.46,11.5,21.3,"10:16:00",1
"16/10/10","10:30",0.0,20.6,57.5,1010.9,2.9,2.6,5.6,39.5,0.45,12.0,21.8,"10:22:00",1
"16/10/10","10:40",0.0,20.8,56.3,1010.7,357.1,2.2,4.7,348.2,0.46,11.8,21.9,"10:39:36",1
"16/10/10","10:50",0.0,20.8,54.6,1010.4,9.7,2.3,4.4,342.7,0.49,11.4,22.2,"10:44:24",1
"16/10/10","11:00",0.0,21.2,59.4,1010.7,12.3,2.0,5.1,355.7,0.50,13.0,22.2,"10:53:36",1
"16/10/10","11:10",0.0,21.4,54.2,1010.7,359.2,1.8,4.3,347.9,0.50,11.8,22.4,"11:09:04",1
"16/10/10","11:20",0.0,21.3,51.3,1010.4,356.7,1.8,3.5,359.1,0.52,10.9,22.6,"11:19:12",1
"16/10/10","11:30",0.0,21.4,55.5,1010.4,8.8,1.8,5.4,8.2,0.52,12.2,22.8,"11:24:16",1
"16/10/10","11:40",0.0,21.3,55.7,1009.7,342.8,2.0,4.5,29.4,0.52,12.1,22.9,"11:36:32",1
"16/10/10","11:50",0.0,21.9,53.5,1010.0,325.5,1.3,4.3,14.4,0.52,12.1,23.1,"11:40:48",1
"16/10/10","12:00",0.0,21.3,54.6,1010.0,4.1,2.3,6.7,346.8,0.52,11.8,23.2,"11:56:16",1
"16/10/10","12:10",0.0,21.5,54.3,1010.2,350.2,2.1,3.6,51.5,0.51,11.9,23.4,"12:02:08",1
"16/10/10","12:20",0.0,22.1,53.5,1009.5,336.3,1.6,3.9,350.6,0.51,12.3,23.4,"12:11:20",1
"16/10/10","12:30",0.0,21.9,54.8,1009.5,343.6,1.7,4.7,340.4,0.51,12.4,23.8,"12:27:44",1
"16/10/10","12:40",0.0,22.1,54.5,1009.3,341.1,1.7,4.2,331.8,0.51,12.5,23.8,"12:33:04",1
"16/10/10","12:50",0.0,21.9,55.2,1009.0,328.5,1.2,3.4,5.5,0.42,12.6,23.9,"12:42:08",1
"16/10/10","13:00",0.0,22.0,55.2,1008.8,355.7,2.3,5.4,339.5,0.50,12.6,23.9,"12:50:56",1
"16/10/10","13:10",0.0,21.9,54.3,1009.0,347.6,2.1,5.5,340.8,0.48,12.3,24.1,"13:02:32",1
"16/10/10","13:20",0.0,21.6,55.6,1008.1,342.8,2.8,6.3,351.8,0.47,12.4,24.4,"13:12:16",1
"16/10/10","13:30",0.0,21.6,52.9,1008.3,345.5,2.2,7.0,335.6,0.46,11.6,24.2,"13:26:16",1
"16/10/10","13:40",0.0,21.6,54.0,1008.8,349.4,2.5,4.7,32.2,0.44,11.9,24.4,"13:38:24",1
"16/10/10","13:50",0.0,21.5,54.1,1008.6,343.6,2.5,5.7,348.8,0.43,11.9,24.3,"13:45:04",1
"16/10/10","14:00",0.0,21.5,54.6,1008.6,337.5,2.6,5.8,2.3,0.41,12.0,24.4,"13:53:20",1
"16/10/10","14:10",0.0,21.0,54.3,1008.6,337.3,2.7,6.6,346.6,0.39,11.5,24.3,"14:05:44",1
"16/10/10","14:20",0.0,20.9,54.1,1008.6,336.7,3.1,7.2,3.4,0.37,11.3,24.4,"14:13:04",1
"16/10/10","14:30",0.0,21.0,54.7,1008.8,347.3,2.5,6.2,5.9,0.35,11.6,24.4,"14:24:24",1
"16/10/10","14:40",0.0,20.9,55.8,1008.6,337.4,2.7,6.7,9.2,0.33,11.8,24.3,"14:34:08",1
"16/10/10","14:50",0.0,20.6,55.5,1008.8,343.8,2.6,6.0,343.7,0.31,11.4,24.4,"14:46:00",1
"16/10/10","15:00",0.0,20.2,55.7,1008.8,335.6,3.0,5.9,338.0,0.28,11.1,24.1,"14:52:40",1
"16/10/10","15:10",0.0,20.0,56.4,1008.8,331.0,3.0,7.5,334.9,0.26,11.1,24.1,"15:00:24",1
"16/10/10","15:20",0.0,19.8,57.6,1009.3,335.7,2.8,6.4,347.0,0.24,11.2,23.9,"15:19:28",1
"16/10/10","15:30",0.0,19.7,57.3,1009.7,329.3,3.0,6.0,338.1,0.22,11.1,23.9,"15:27:36",1
"16/10/10","15:40",0.0,19.7,57.3,1009.7,339.8,3.1,7.1,343.0,0.19,11.1,23.8,"15:31:20",1
"16/10/10","15:50",0.0,19.2,56.5,1009.5,334.5,3.5,8.8,336.4,0.07,10.4,23.5,"15:44:08",1
"16/10/10","16:00",0.0,18.8,58.7,1009.5,336.0,3.0,6.5,338.4,0.07,10.6,23.1,"15:51:52",1
"16/10/10","16:10",0.0,18.7,60.1,1009.5,343.7,2.3,5.2,340.2,0.06,10.9,23.1,"16:00:24",1
"16/10/10","16:20",0.0,18.5,60.7,1009.7,340.1,2.0,4.7,356.9,0.05,10.8,23.0,"16:12:32",1
"16/10/10","16:30",0.0,18.4,60.9,1009.5,338.6,2.1,4.5,348.2,0.04,10.8,22.9,"16:22:32",1
"16/10/10","16:40",0.0,18.3,61.0,1010.0,333.4,2.0,4.2,359.4,0.02,10.7,22.8,"16:32:40",1
"16/10/10","16:50",0.0,18.0,63.0,1010.0,334.2,1.6,3.6,357.2,0.01,10.9,22.8,"16:41:36",1
"16/10/10","17:00",0.0,17.7,64.8,1009.7,324.9,1.6,3.6,346.4,0.01,11.0,22.6,"16:51:44",1
"16/10/10","17:10",0.0,17.4,64.8,1010.4,324.5,1.8,5.0,343.4,0.00,10.8,22.4,"17:01:36",1
"16/10/10","17:20",0.0,17.1,66.3,1010.7,321.2,1.3,3.1,1.9,0.00,10.8,22.3,"17:12:16",1
"16/10/10","17:30",0.0,16.8,67.5,1010.9,321.8,1.6,3.5,333.7,0.00,10.8,22.2,"17:24:32",1
"16/10/10","17:40",0.0,16.6,68.5,1010.9,317.3,1.6,3.2,328.9,0.00,10.8,22.1,"17:32:56",1
"16/10/10","17:50",0.0,16.4,69.6,1010.9,320.7,1.6,4.0,342.0,0.00,10.9,22.0,"17:40:32",1
"16/10/10","18:00",0.0,16.2,70.4,1010.7,314.1,1.7,3.1,348.3,0.00,10.9,22.0,"17:50:16",1
"16/10/10","18:10",0.0,16.2,70.7,1011.4,317.1,1.8,3.1,353.2,0.00,10.9,21.8,"18:01:28",1
"16/10/10","18:20",0.0,16.0,71.8,1011.4,317.1,1.6,4.0,328.1,0.00,11.0,21.7,"18:14:48",1
"16/10/10","18:30",0.0,16.0,72.1,1011.2,327.1,2.0,4.4,337.7,0.00,11.0,21.4,"18:25:36",1
"16/10/10","18:40",0.0,16.0,72.4,1011.4,317.4,1.6,2.8,324.5,0.00,11.1,21.3,"18:35:28",1
"16/10/10","18:50",0.0,16.1,72.4,1011.4,326.0,2.0,3.3,354.8,0.00,11.2,21.3,"18:41:20",1
"16/10/10","19:00",0.0,16.2,72.8,1011.4,328.3,2.0,4.2,341.2,0.00,11.4,21.3,"18:50:08",1
"16/10/10","19:10",0.0,16.3,72.3,1011.6,324.5,2.1,4.7,334.2,0.00,11.4,21.0,"19:05:36",1
"16/10/10","19:20",0.0,16.3,72.5,1011.9,323.8,1.7,3.3,342.2,0.00,11.4,20.9,"19:10:40",1
"16/10/10","19:30",0.0,16.3,72.1,1011.9,326.0,1.6,4.0,0.3,0.00,11.3,21.1,"19:23:04",1
"16/10/10","19:40",0.0,16.3,72.5,1011.9,326.4,1.7,3.7,353.8,0.00,11.4,20.9,"19:35:04",1
"16/10/10","19:50",0.0,16.3,72.8,1012.1,315.9,1.5,3.5,322.8,0.00,11.5,20.7,"19:42:56",1
"16/10/10","20:00",0.0,16.4,73.0,1011.9,322.9,1.6,4.1,352.0,0.00,11.6,20.8,"19:52:00",1
"16/10/10","20:10",0.0,16.3,73.0,1012.3,314.4,1.2,3.3,346.8,0.00,11.5,20.8,"20:01:12",1
"16/10/10","20:20",0.0,16.3,73.2,1012.6,334.6,1.3,2.8,345.3,0.00,11.5,20.8,"20:14:00",1
"16/10/10","20:30",0.0,16.3,73.0,1012.3,327.8,1.5,3.3,336.0,0.00,11.5,20.4,"20:29:44",1
"16/10/10","20:40",0.0,16.3,73.8,1011.9,312.8,1.2,3.5,336.1,0.00,11.7,20.8,"20:32:00",1
"16/10/10","20:50",0.0,16.2,73.9,1012.1,300.3,1.0,2.2,322.1,0.00,11.6,20.7,"20:44:24",1
"16/10/10","21:00",0.0,16.0,74.9,1012.3,303.6,0.5,1.2,306.3,0.00,11.6,20.5,"20:59:28",1
"16/10/10","21:10",0.0,15.6,77.8,1012.3,324.8,1.2,1.9,329.1,0.00,11.8,20.4,"21:07:12",1
"16/10/10","21:20",0.0,14.9,80.9,1012.1,313.1,1.1,1.8,337.9,0.00,11.7,20.6,"21:13:12",1
"16/10/10","21:30",0.0,14.5,83.7,1011.9,297.1,0.7,1.1,321.8,0.00,11.8,20.3,"21:20:08",1
"16/10/10","21:40",0.0,14.4,85.7,1011.6,322.6,1.0,1.6,330.0,0.00,12.1,20.5,"21:36:40",1
"16/10/10","21:50",0.0,14.4,86.5,1011.4,313.1,1.1,1.6,332.4,0.00,12.2,20.5,"21:40:08",1
"16/10/10","22:00",0.0,14.4,87.4,1011.6,313.6,1.1,1.7,312.9,0.00,12.4,20.3,"21:54:56",1
"16/10/10","22:10",0.0,14.3,87.7,1011.9,300.1,1.0,1.6,350.5,0.00,12.3,20.2,"22:06:56",1
"16/10/10","22:20",0.0,14.2,87.5,1011.9,301.6,1.0,1.4,331.4,0.00,12.2,20.0,"22:16:16",1
"16/10/10","22:30",0.0,14.4,87.6,1011.9,303.3,0.6,1.1,321.6,0.00,12.4,20.2,"22:20:24",1
"16/10/10","22:40",0.0,14.5,87.4,1011.9,311.4,0.6,1.3,347.2,0.00,12.5,20.1,"22:31:04",1
"16/10/10","22:50",0.0,14.5,87.9,1011.6,334.7,0.5,1.4,320.8,0.00,12.6,20.1,"22:49:28",1
"16/10/10","23:00",0.0,14.6,87.9,1012.1,328.0,0.7,1.7,319.9,0.00,12.7,20.1,"22:58:08",1
"16/10/10","23:10",0.0,14.6,88.0,1012.1,308.1,0.8,1.6,330.8,0.00,12.7,20.1,"23:06:32",1
"16/10/10","23:20",0.0,14.6,88.5,1012.1,299.7,0.6,1.2,53.3,0.00,12.8,20.0,"23:14:16",1
"16/10/10","23:30",0.0,14.5,88.2,1012.1,292.7,1.1,2.0,316.5,0.00,12.6,20.1,"23:26:40",1
"16/10/10","23:40",0.0,14.7,87.4,1011.9,290.5,0.3,0.8,266.6,0.00,12.7,20.2,"23:30:08",1
"16/10/10","23:50",0.0,14.8,88.1,1011.9,284.5,0.2,0.9,305.7,0.00,12.9,20.0,"23:49:12",1
"16/10/10","24:00",0.0,14.7,88.2,1011.6,307.6,1.3,1.9,318.1,0.00,12.8,19.9,"23:55:04",1
